Simultaneous Nadir Overpasses (SNOs) Predictions

Prediction of SNOs between AURA and NPP Satellite Orbit:

Table of predicted SNOs for the next 14.0 days since TLE Epoch: 3/18/2022
Index Date (AURA) Time (AURA) Lat,Lon (AURA) SZA (AURA ) Date (NPP) Time (NPP) Lat,Lon (NPP) SZA (NPP ) Distance(km) Time Diff (sec)
1 03/19/2022 19:09:15 -79.24, -32.18 86.57 03/19/2022 19:08:05 -79.23, -32.30 86.49 2.60 70
2 03/19/2022 19:58:32 79.58, 137.76 92.93 03/19/2022 19:58:39 79.59, 137.82 92.91 1.08 7
3 03/22/2022 11:25:39 -79.40, 84.75 87.87 03/22/2022 11:24:55 -79.41, 84.80 87.85 1.16 44
4 03/22/2022 12:14:59 79.63,-106.07 91.79 03/22/2022 12:15:33 79.62,-106.13 91.78 1.34 34
5 03/25/2022 03:42:04 -79.51,-158.67 89.10 03/25/2022 03:41:47 -79.51,-158.62 89.09 1.02 17
6 03/25/2022 04:31:25 79.69, 10.26 90.63 03/25/2022 04:32:26 79.68, 10.19 90.60 1.26 61
7 03/27/2022 19:09:07 79.35, 148.53 90.08 03/27/2022 19:08:00 79.35, 148.61 90.11 1.74 67
8 03/27/2022 19:58:30 -79.51, -42.72 90.18 03/27/2022 19:58:41 -79.50, -42.86 90.16 3.10 11
9 03/30/2022 11:25:32 79.42, -95.14 88.92 03/30/2022 11:24:53 79.42, -95.13 88.95 0.28 39



Historial Predications of SNOs between AURA and NPP
